Time,TemperatureF,DewpointF,PressureIn,WindDirection,WindDirectionDegrees,WindSpeedMPH,WindSpeedGustMPH,Humidity,HourlyPrecipIn,Conditions,Clouds,dailyrainin,SoftwareType,DateUTC
2013-06-20 00:00:00,65.7,63.0,29.82,WNW,286,0.0,0.0,91,0.00,,,0.00,Wunderground v.1.15,2013-06-20 04:00:00,
2013-06-20 00:01:00,65.7,63.0,29.82,WNW,286,0.0,0.0,91,0.00,,,0.00,Wunderground v.1.15,2013-06-20 04:01:00,
2013-06-20 00:02:00,65.7,63.0,29.82,WNW,286,0.0,0.0,91,0.00,,,0.00,Wunderground v.1.15,2013-06-20 04:02:00,
2013-06-20 00:04:00,65.7,63.0,29.82,WNW,286,0.0,0.0,91,0.00,,,0.00,Wunderground v.1.15,2013-06-20 04:04:00,
2013-06-20 00:06:00,65.6,63.2,29.82,WNW,286,0.0,0.0,92,0.00,,,0.00,Wunderground v.1.15,2013-06-20 04:06:00,
2013-06-20 00:11:00,65.6,63.2,29.82,WNW,286,0.0,0.0,92,0.00,,,0.00,Wunderground v.1.15,2013-06-20 04:11:00,
2013-06-20 00:17:00,65.5,62.8,29.82,NW,304,0.0,1.0,91,0.00,,,0.00,Wunderground v.1.15,2013-06-20 04:17:00,
2013-06-20 00:23:00,65.5,62.8,29.82,NW,304,0.0,1.0,91,0.00,,,0.00,Wunderground v.1.15,2013-06-20 04:23:00,
2013-06-20 00:24:00,65.5,62.8,29.82,NW,304,0.0,1.0,91,0.00,,,0.00,Wunderground v.1.15,2013-06-20 04:24:00,
2013-06-20 00:30:00,65.4,62.7,29.82,NW,304,0.0,0.0,91,0.00,,,0.00,Wunderground v.1.15,2013-06-20 04:30:00,
2013-06-20 00:36:00,65.4,62.7,29.82,NW,304,0.0,1.0,91,0.00,,,0.00,Wunderground v.1.15,2013-06-20 04:36:00,
2013-06-20 00:41:00,65.5,62.5,29.82,NW,304,0.0,0.0,90,0.00,,,0.00,Wunderground v.1.15,2013-06-20 04:41:00,
2013-06-20 00:48:00,65.4,62.7,29.82,NW,304,0.0,0.0,91,0.00,,,0.00,Wunderground v.1.15,2013-06-20 04:48:00,
2013-06-20 00:54:00,65.4,62.4,29.81,NW,304,0.0,0.0,90,0.00,,,0.00,Wunderground v.1.15,2013-06-20 04:54:00,
2013-06-20 01:00:00,65.5,62.2,29.81,NW,304,0.0,0.0,89,0.00,,,0.00,Wunderground v.1.15,2013-06-20 05:00:00,
2013-06-20 01:06:00,65.6,62.3,29.82,NW,304,0.0,0.0,89,0.00,,,0.00,Wunderground v.1.15,2013-06-20 05:06:00,
2013-06-20 01:12:00,65.6,62.6,29.81,NW,304,0.0,0.0,90,0.00,,,0.00,Wunderground v.1.15,2013-06-20 05:12:00,
2013-06-20 01:18:00,65.5,62.2,29.81,NW,304,0.0,0.0,89,0.00,,,0.00,Wunderground v.1.15,2013-06-20 05:18:00,
2013-06-20 01:24:00,65.3,62.0,29.81,NW,304,0.0,0.0,89,0.00,,,0.00,Wunderground v.1.15,2013-06-20 05:24:00,
2013-06-20 01:29:00,65.2,62.2,29.82,NW,304,0.0,0.0,90,0.00,,,0.00,Wunderground v.1.15,2013-06-20 05:29:00,
2013-06-20 01:34:00,65.0,61.7,29.82,NW,304,0.0,0.0,89,0.00,,,0.00,Wunderground v.1.15,2013-06-20 05:34:00,
2013-06-20 01:40:00,64.9,61.9,29.82,NW,304,0.0,0.0,90,0.00,,,0.00,Wunderground v.1.15,2013-06-20 05:40:00,
2013-06-20 01:48:00,64.7,61.7,29.82,NW,304,0.0,0.0,90,0.00,,,0.00,Wunderground v.1.15,2013-06-20 05:48:00,
2013-06-20 01:54:00,64.6,61.6,29.82,NW,304,0.0,0.0,90,0.00,,,0.00,Wunderground v.1.15,2013-06-20 05:54:00,
2013-06-20 01:59:00,64.5,61.5,29.82,NW,304,0.0,0.0,90,0.00,,,0.00,Wunderground v.1.15,2013-06-20 05:59:00,
2013-06-20 02:04:00,64.4,61.4,29.82,NW,304,0.0,0.0,90,0.00,,,0.00,Wunderground v.1.15,2013-06-20 06:04:00,
2013-06-20 02:10:00,64.3,61.6,29.81,NW,304,0.0,0.0,91,0.00,,,0.00,Wunderground v.1.15,2013-06-20 06:10:00,
2013-06-20 02:16:00,64.2,61.5,29.81,NW,304,0.0,0.0,91,0.00,,,0.00,Wunderground v.1.15,2013-06-20 06:16:00,
2013-06-20 02:21:00,64.1,61.4,29.81,NW,304,0.0,0.0,91,0.00,,,0.00,Wunderground v.1.15,2013-06-20 06:21:00,
2013-06-20 02:27:00,64.0,61.3,29.81,NW,304,0.0,0.0,91,0.00,,,0.00,Wunderground v.1.15,2013-06-20 06:27:00,
2013-06-20 02:32:00,63.9,61.2,29.81,NW,304,0.0,0.0,91,0.00,,,0.00,Wunderground v.1.15,2013-06-20 06:32:00,
2013-06-20 02:38:00,63.8,61.4,29.81,NW,304,0.0,0.0,92,0.00,,,0.00,Wunderground v.1.15,2013-06-20 06:38:00,
2013-06-20 02:44:00,63.8,61.4,29.82,NW,304,0.0,0.0,92,0.00,,,0.00,Wunderground v.1.15,2013-06-20 06:44:00,
2013-06-20 02:50:00,63.7,61.3,29.82,NW,304,0.0,0.0,92,0.00,,,0.00,Wunderground v.1.15,2013-06-20 06:50:00,
2013-06-20 02:55:00,63.6,61.2,29.82,NW,304,0.0,0.0,92,0.00,,,0.00,Wunderground v.1.15,2013-06-20 06:55:00,
2013-06-20 03:00:00,63.6,61.2,29.81,NW,304,0.0,0.0,92,0.00,,,0.00,Wunderground v.1.15,2013-06-20 07:00:00,
2013-06-20 03:06:00,63.5,61.1,29.81,NW,304,0.0,0.0,92,0.00,,,0.00,Wunderground v.1.15,2013-06-20 07:06:00,
2013-06-20 03:11:00,63.5,61.1,29.81,NW,304,0.0,1.0,92,0.00,,,0.00,Wunderground v.1.15,2013-06-20 07:11:00,
2013-06-20 03:16:00,63.5,61.1,29.82,NW,306,0.0,1.0,92,0.00,,,0.00,Wunderground v.1.15,2013-06-20 07:16:00,
2013-06-20 03:22:00,63.4,61.0,29.82,NW,306,0.0,2.0,92,0.00,,,0.00,Wunderground v.1.15,2013-06-20 07:22:00,
2013-06-20 03:28:00,63.4,61.0,29.82,NW,306,1.0,2.0,92,0.00,,,0.00,Wunderground v.1.15,2013-06-20 07:28:00,
2013-06-20 03:34:00,63.4,61.0,29.82,WNW,303,1.0,2.0,92,0.00,,,0.00,Wunderground v.1.15,2013-06-20 07:34:00,
2013-06-20 03:40:00,63.4,61.0,29.82,WNW,303,1.0,1.0,92,0.00,,,0.00,Wunderground v.1.15,2013-06-20 07:40:00,
2013-06-20 03:45:00,63.3,60.9,29.82,WNW,303,0.0,1.0,92,0.00,,,0.00,Wunderground v.1.15,2013-06-20 07:45:00,
2013-06-20 03:51:00,63.3,60.9,29.82,WNW,303,1.0,1.0,92,0.00,,,0.00,Wunderground v.1.15,2013-06-20 07:51:00,
2013-06-20 03:56:00,63.2,60.8,29.82,NW,311,1.0,1.0,92,0.00,,,0.00,Wunderground v.1.15,2013-06-20 07:56:00,
2013-06-20 04:02:00,63.2,61.1,29.82,NW,311,0.0,1.0,93,0.00,,,0.00,Wunderground v.1.15,2013-06-20 08:02:00,
2013-06-20 04:08:00,63.2,60.8,29.82,NW,311,0.0,1.0,92,0.00,,,0.00,Wunderground v.1.15,2013-06-20 08:08:00,
2013-06-20 04:13:00,63.2,60.8,29.82,NW,311,0.0,1.0,92,0.00,,,0.00,Wunderground v.1.15,2013-06-20 08:13:00,
2013-06-20 04:19:00,63.2,61.1,29.82,NW,311,1.0,1.0,93,0.00,,,0.00,Wunderground v.1.15,2013-06-20 08:19:00,
2013-06-20 04:24:00,63.2,61.1,29.82,NW,311,1.0,2.0,93,0.00,,,0.00,Wunderground v.1.15,2013-06-20 08:24:00,
2013-06-20 04:30:00,63.2,60.8,29.82,NW,311,1.0,1.0,92,0.00,,,0.00,Wunderground v.1.15,2013-06-20 08:30:00,
2013-06-20 04:35:00,63.2,60.8,29.82,NW,311,1.0,1.0,92,0.00,,,0.00,Wunderground v.1.15,2013-06-20 08:35:00,
2013-06-20 04:41:00,63.2,60.8,29.82,NW,311,1.0,1.0,92,0.00,,,0.00,Wunderground v.1.15,2013-06-20 08:41:00,
2013-06-20 04:48:00,63.1,60.7,29.83,NW,312,0.0,0.0,92,0.00,,,0.00,Wunderground v.1.15,2013-06-20 08:48:00,
2013-06-20 04:54:00,63.1,60.7,29.83,NW,313,0.0,2.0,92,0.00,,,0.00,Wunderground v.1.15,2013-06-20 08:54:00,
2013-06-20 05:00:00,63.1,60.7,29.83,NW,312,1.0,2.0,92,0.00,,,0.00,Wunderground v.1.15,2013-06-20 09:00:00,
2013-06-20 05:06:00,63.1,60.7,29.83,NW,312,1.0,2.0,92,0.00,,,0.00,Wunderground v.1.15,2013-06-20 09:06:00,
2013-06-20 05:12:00,63.1,60.7,29.83,NW,312,1.0,1.0,92,0.00,,,0.00,Wunderground v.1.15,2013-06-20 09:12:00,
2013-06-20 05:18:00,63.0,60.6,29.83,NW,313,1.0,1.0,92,0.00,,,0.00,Wunderground v.1.15,2013-06-20 09:18:00,
2013-06-20 06:48:00,62.8,60.7,29.87,NW,315,0.0,2.0,93,0.00,,,0.00,Wunderground v.1.15,2013-06-20 10:48:00,
2013-06-20 06:54:00,62.9,60.8,29.87,NW,306,1.0,2.0,93,0.00,,,0.00,Wunderground v.1.15,2013-06-20 10:54:00,
2013-06-20 07:00:00,63.0,60.9,29.87,NW,306,0.0,1.0,93,0.00,,,0.00,Wunderground v.1.15,2013-06-20 11:00:00,
2013-06-20 07:06:00,63.1,61.0,29.87,NW,314,0.0,1.0,93,0.00,,,0.00,Wunderground v.1.15,2013-06-20 11:06:00,
2013-06-20 07:11:00,63.5,61.4,29.87,WNW,291,0.0,2.0,93,0.00,,,0.00,Wunderground v.1.15,2013-06-20 11:11:00,
2013-06-20 07:17:00,63.9,61.5,29.88,WNW,302,0.0,2.0,92,0.00,,,0.00,Wunderground v.1.15,2013-06-20 11:17:00,
2013-06-20 07:23:00,64.1,61.7,29.88,WNW,302,0.0,1.0,92,0.00,,,0.00,Wunderground v.1.15,2013-06-20 11:23:00,
2013-06-20 07:29:00,64.2,61.8,29.88,WNW,302,0.0,1.0,92,0.00,,,0.00,Wunderground v.1.15,2013-06-20 11:29:00,
2013-06-20 07:34:00,64.2,61.8,29.88,WNW,302,0.0,1.0,92,0.00,,,0.00,Wunderground v.1.15,2013-06-20 11:34:00,
2013-06-20 07:40:00,64.2,61.8,29.89,WNW,302,0.0,0.0,92,0.00,,,0.00,Wunderground v.1.15,2013-06-20 11:40:00,
2013-06-20 07:48:00,64.5,62.4,29.89,NW,311,0.0,0.0,93,0.00,,,0.00,Wunderground v.1.15,2013-06-20 11:48:00,
2013-06-20 07:54:00,64.7,62.6,29.89,NW,311,0.0,1.0,93,0.00,,,0.00,Wunderground v.1.15,2013-06-20 11:54:00,
2013-06-20 08:00:00,65.1,62.4,29.90,NW,311,0.0,0.0,91,0.00,,,0.00,Wunderground v.1.15,2013-06-20 12:00:00,
2013-06-20 08:06:00,65.7,62.7,29.90,NW,311,0.0,1.0,90,0.00,,,0.00,Wunderground v.1.15,2013-06-20 12:06:00,
2013-06-20 08:11:00,66.1,62.8,29.91,NW,311,0.0,0.0,89,0.00,,,0.00,Wunderground v.1.15,2013-06-20 12:11:00,
2013-06-20 08:17:00,66.7,62.7,29.91,WNW,294,0.0,1.0,87,0.00,,,0.00,Wunderground v.1.15,2013-06-20 12:17:00,
2013-06-20 08:22:00,66.9,62.6,29.91,SSW,199,1.0,1.0,86,0.00,,,0.00,Wunderground v.1.15,2013-06-20 12:22:00,
2013-06-20 08:28:00,67.1,62.8,29.91,SW,223,1.0,2.0,86,0.00,,,0.00,Wunderground v.1.15,2013-06-20 12:28:00,
2013-06-20 08:33:00,67.2,62.5,29.91,West,260,1.0,1.0,85,0.00,,,0.00,Wunderground v.1.15,2013-06-20 12:33:00,
2013-06-20 08:39:00,67.3,62.6,29.92,SSE,161,1.0,2.0,85,0.00,,,0.00,Wunderground v.1.15,2013-06-20 12:39:00,
2013-06-20 08:45:00,67.5,62.5,29.92,SSW,196,1.0,2.0,84,0.00,,,0.00,Wunderground v.1.15,2013-06-20 12:45:00,
2013-06-20 08:51:00,67.7,62.7,29.92,SSW,205,1.0,2.0,84,0.00,,,0.00,Wunderground v.1.15,2013-06-20 12:51:00,
2013-06-20 08:57:00,67.8,62.8,29.92,SW,234,1.0,2.0,84,0.00,,,0.00,Wunderground v.1.15,2013-06-20 12:57:00,
2013-06-20 09:02:00,67.9,63.2,29.92,South,182,1.0,1.0,85,0.00,,,0.00,Wunderground v.1.15,2013-06-20 13:02:00,
2013-06-20 09:08:00,68.2,63.2,29.92,SSW,211,1.0,2.0,84,0.00,,,0.00,Wunderground v.1.15,2013-06-20 13:08:00,
2013-06-20 09:14:00,68.2,63.2,29.92,South,189,1.0,2.0,84,0.00,,,0.00,Wunderground v.1.15,2013-06-20 13:14:00,
2013-06-20 09:20:00,68.2,63.2,29.92,SW,217,1.0,1.0,84,0.00,,,0.00,Wunderground v.1.15,2013-06-20 13:20:00,
2013-06-20 09:25:00,68.3,63.6,29.92,SSW,210,1.0,2.0,85,0.00,,,0.00,Wunderground v.1.15,2013-06-20 13:25:00,
2013-06-20 09:31:00,68.4,63.4,29.92,South,186,1.0,1.0,84,0.00,,,0.00,Wunderground v.1.15,2013-06-20 13:31:00,
2013-06-20 09:37:00,68.7,63.7,29.92,SSW,195,1.0,3.0,84,0.00,,,0.00,Wunderground v.1.15,2013-06-20 13:37:00,
2013-06-20 09:43:00,69.1,64.1,29.92,South,173,1.0,2.0,84,0.00,,,0.00,Wunderground v.1.15,2013-06-20 13:43:00,
2013-06-20 09:48:00,69.4,64.0,29.92,West,263,1.0,2.0,83,0.00,,,0.00,Wunderground v.1.15,2013-06-20 13:48:00,
2013-06-20 09:54:00,69.4,64.0,29.92,SW,225,1.0,2.0,83,0.00,,,0.00,Wunderground v.1.15,2013-06-20 13:54:00,
2013-06-20 09:59:00,69.3,63.9,29.92,WSW,237,1.0,3.0,83,0.00,,,0.00,Wunderground v.1.15,2013-06-20 13:59:00,
2013-06-20 10:05:00,69.2,63.8,29.92,SW,231,1.0,1.0,83,0.00,,,0.00,Wunderground v.1.15,2013-06-20 14:05:00,
2013-06-20 10:11:00,69.2,64.2,29.92,SW,220,0.0,1.0,84,0.00,,,0.00,Wunderground v.1.15,2013-06-20 14:11:00,
2013-06-20 10:17:00,69.5,64.5,29.92,SSW,194,0.0,1.0,84,0.00,,,0.00,Wunderground v.1.15,2013-06-20 14:17:00,
2013-06-20 10:22:00,69.7,64.6,29.92,WSW,244,0.0,0.0,84,0.00,,,0.00,Wunderground v.1.15,2013-06-20 14:22:00,
2013-06-20 10:28:00,69.9,63.8,29.92,South,169,1.0,3.0,81,0.00,,,0.00,Wunderground v.1.15,2013-06-20 14:28:00,
2013-06-20 10:33:00,70.1,64.0,29.92,SW,229,1.0,3.0,81,0.00,,,0.00,Wunderground v.1.15,2013-06-20 14:33:00,
2013-06-20 10:38:00,70.5,64.4,29.92,SSW,210,0.0,3.0,81,0.00,,,0.00,Wunderground v.1.15,2013-06-20 14:38:00,
2013-06-20 10:44:00,70.8,64.3,29.92,SSW,197,1.0,2.0,80,0.00,,,0.00,Wunderground v.1.15,2013-06-20 14:44:00,
2013-06-20 10:49:00,71.2,64.4,29.92,South,190,1.0,1.0,79,0.00,,,0.00,Wunderground v.1.15,2013-06-20 14:49:00,
2013-06-20 10:55:00,71.7,64.5,29.92,SSW,209,1.0,2.0,78,0.00,,,0.00,Wunderground v.1.15,2013-06-20 14:55:00,
2013-06-20 11:00:00,71.9,65.0,29.92,SSW,198,1.0,1.0,79,0.00,,,0.00,Wunderground v.1.15,2013-06-20 15:00:00,
2013-06-20 11:06:00,72.1,63.7,29.92,WSW,254,0.0,1.0,75,0.00,,,0.00,Wunderground v.1.15,2013-06-20 15:06:00,
2013-06-20 11:11:00,72.3,64.3,29.92,South,178,0.0,0.0,76,0.00,,,0.00,Wunderground v.1.15,2013-06-20 15:11:00,
2013-06-20 11:17:00,72.5,64.5,29.92,NNW,344,0.0,1.0,76,0.00,,,0.00,Wunderground v.1.15,2013-06-20 15:17:00,
2013-06-20 11:23:00,72.8,64.8,29.92,NNW,344,0.0,0.0,76,0.00,,,0.00,Wunderground v.1.15,2013-06-20 15:23:00,
2013-06-20 11:28:00,73.0,65.0,29.92,NNW,344,0.0,1.0,76,0.00,,,0.00,Wunderground v.1.15,2013-06-20 15:28:00,
2013-06-20 11:33:00,72.7,64.7,29.92,SSW,194,1.0,2.0,76,0.00,,,0.00,Wunderground v.1.15,2013-06-20 15:33:00,
2013-06-20 11:39:00,72.7,64.3,29.92,SSW,209,1.0,2.0,75,0.00,,,0.00,Wunderground v.1.15,2013-06-20 15:39:00,
2013-06-20 11:45:00,73.1,64.7,29.92,SSW,192,0.0,1.0,75,0.00,,,0.00,Wunderground v.1.15,2013-06-20 15:45:00,
2013-06-20 11:50:00,73.4,64.6,29.92,SSE,158,0.0,0.0,74,0.00,,,0.00,Wunderground v.1.15,2013-06-20 15:50:00,
2013-06-20 11:55:00,73.9,65.9,29.92,South,175,0.0,1.0,76,0.00,,,0.00,Wunderground v.1.15,2013-06-20 15:55:00,
2013-06-20 12:00:00,74.2,65.8,29.92,WSW,254,0.0,1.0,75,0.00,,,0.00,Wunderground v.1.15,2013-06-20 16:00:00,
2013-06-20 12:06:00,74.5,65.3,29.92,ENE,61,0.0,1.0,73,0.00,,,0.00,Wunderground v.1.15,2013-06-20 16:06:00,
2013-06-20 12:12:00,74.7,65.5,29.92,SW,222,0.0,1.0,73,0.00,,,0.00,Wunderground v.1.15,2013-06-20 16:12:00,
2013-06-20 12:17:00,74.9,66.1,29.92,SSW,196,0.0,2.0,74,0.00,,,0.00,Wunderground v.1.15,2013-06-20 16:17:00,
2013-06-20 12:23:00,75.3,65.6,29.92,ESE,111,0.0,1.0,72,0.00,,,0.00,Wunderground v.1.15,2013-06-20 16:23:00,
2013-06-20 12:29:00,75.7,65.6,29.92,NNW,347,0.0,1.0,71,0.00,,,0.00,Wunderground v.1.15,2013-06-20 16:29:00,
2013-06-20 12:35:00,75.5,65.8,29.92,NNW,347,0.0,1.0,72,0.00,,,0.00,Wunderground v.1.15,2013-06-20 16:35:00,
2013-06-20 12:41:00,75.3,64.8,29.92,NNW,347,0.0,1.0,70,0.00,,,0.00,Wunderground v.1.15,2013-06-20 16:41:00,
2013-06-20 12:48:00,75.1,65.5,29.92,NNW,347,0.0,0.0,72,0.00,,,0.00,Wunderground v.1.15,2013-06-20 16:48:00,
2013-06-20 12:54:00,75.0,66.5,29.91,West,262,0.0,1.0,75,0.00,,,0.00,Wunderground v.1.15,2013-06-20 16:54:00,
2013-06-20 13:00:00,75.1,64.2,29.92,SSW,213,0.0,1.0,69,0.00,,,0.00,Wunderground v.1.15,2013-06-20 17:00:00,
2013-06-20 13:06:00,75.2,64.3,29.91,South,185,1.0,1.0,69,0.00,,,0.00,Wunderground v.1.15,2013-06-20 17:06:00,
2013-06-20 13:11:00,75.1,65.5,29.91,West,263,0.0,0.0,72,0.00,,,0.00,Wunderground v.1.15,2013-06-20 17:11:00,
2013-06-20 13:17:00,75.1,65.5,29.91,NE,54,0.0,2.0,72,0.00,,,0.00,Wunderground v.1.15,2013-06-20 17:17:00,
2013-06-20 13:22:00,75.3,66.4,29.91,NE,54,0.0,1.0,74,0.00,,,0.00,Wunderground v.1.15,2013-06-20 17:22:00,
2013-06-20 13:28:00,75.8,65.7,29.91,ENE,69,0.0,2.0,71,0.00,,,0.00,Wunderground v.1.15,2013-06-20 17:28:00,
2013-06-20 13:34:00,76.0,65.1,29.91,ENE,69,0.0,0.0,69,0.00,,,0.00,Wunderground v.1.15,2013-06-20 17:34:00,
2013-06-20 13:39:00,76.1,64.8,29.91,WSW,240,0.0,2.0,68,0.00,,,0.00,Wunderground v.1.15,2013-06-20 17:39:00,
2013-06-20 13:45:00,75.8,64.5,29.91,West,276,1.0,1.0,68,0.00,,,0.00,Wunderground v.1.15,2013-06-20 17:45:00,
2013-06-20 13:50:00,75.7,63.5,29.91,NNE,28,0.0,3.0,66,0.00,,,0.00,Wunderground v.1.15,2013-06-20 17:50:00,
2013-06-20 13:56:00,75.7,63.5,29.91,WSW,252,1.0,4.0,66,0.00,,,0.00,Wunderground v.1.15,2013-06-20 17:56:00,
2013-06-20 14:01:00,75.6,64.3,29.91,NW,324,1.0,1.0,68,0.00,,,0.00,Wunderground v.1.15,2013-06-20 18:01:00,
2013-06-20 14:06:00,76.1,63.9,29.91,SE,144,0.0,2.0,66,0.00,,,0.00,Wunderground v.1.15,2013-06-20 18:06:00,
2013-06-20 14:12:00,76.2,64.9,29.91,South,182,0.0,2.0,68,0.00,,,0.00,Wunderground v.1.15,2013-06-20 18:12:00,
2013-06-20 14:18:00,75.7,63.1,29.91,SSE,154,0.0,2.0,65,0.00,,,0.00,Wunderground v.1.15,2013-06-20 18:18:00,
2013-06-20 14:24:00,75.4,63.7,29.91,WNW,288,1.0,1.0,67,0.00,,,0.00,Wunderground v.1.15,2013-06-20 18:24:00,
2013-06-20 14:30:00,75.5,65.0,29.91,West,265,0.0,1.0,70,0.00,,,0.00,Wunderground v.1.15,2013-06-20 18:30:00,
2013-06-20 14:35:00,75.6,65.1,29.91,SSW,196,0.0,1.0,70,0.00,,,0.00,Wunderground v.1.15,2013-06-20 18:35:00,
2013-06-20 14:41:00,75.5,64.2,29.91,NW,304,0.0,0.0,68,0.00,,,0.00,Wunderground v.1.15,2013-06-20 18:41:00,
2013-06-20 18:48:00,72.7,66.9,29.87,WNW,300,0.0,0.0,82,0.00,,,0.00,Wunderground v.1.15,2013-06-20 22:48:00,
2013-06-20 18:54:00,72.7,66.2,29.87,WNW,300,0.0,0.0,80,0.00,,,0.00,Wunderground v.1.15,2013-06-20 22:54:00,
2013-06-20 19:00:00,72.7,66.9,29.87,WNW,300,0.0,0.0,82,0.00,,,0.00,Wunderground v.1.15,2013-06-20 23:00:00,
2013-06-20 19:06:00,72.6,67.1,29.87,WNW,299,0.0,0.0,83,0.00,,,0.00,Wunderground v.1.15,2013-06-20 23:06:00,
2013-06-20 19:12:00,72.4,66.9,29.87,WNW,299,0.0,0.0,83,0.00,,,0.00,Wunderground v.1.15,2013-06-20 23:12:00,
2013-06-20 19:18:00,72.3,66.8,29.87,WNW,299,0.0,0.0,83,0.00,,,0.00,Wunderground v.1.15,2013-06-20 23:18:00,
2013-06-20 19:24:00,72.1,66.6,29.88,WNW,299,0.0,0.0,83,0.00,,,0.00,Wunderground v.1.15,2013-06-20 23:24:00,
2013-06-20 19:29:00,72.0,66.6,29.88,WNW,299,0.0,0.0,83,0.00,,,0.00,Wunderground v.1.15,2013-06-20 23:29:00,
2013-06-20 19:35:00,71.7,66.3,29.88,WNW,299,0.0,0.0,83,0.00,,,0.00,Wunderground v.1.15,2013-06-20 23:35:00,
2013-06-20 19:41:00,71.5,66.1,29.88,WNW,299,0.0,0.0,83,0.00,,,0.00,Wunderground v.1.15,2013-06-20 23:41:00,
2013-06-20 19:48:00,71.1,65.7,29.88,WNW,299,0.0,0.0,83,0.00,,,0.00,Wunderground v.1.15,2013-06-20 23:48:00,
2013-06-20 19:54:00,70.7,65.6,29.88,WNW,299,0.0,0.0,84,0.00,,,0.00,Wunderground v.1.15,2013-06-20 23:54:00,
2013-06-20 19:59:00,70.5,65.4,29.88,WNW,299,0.0,0.0,84,0.00,,,0.00,Wunderground v.1.15,2013-06-20 23:59:00,
2013-06-20 20:04:00,70.3,65.2,29.88,WNW,299,0.0,0.0,84,0.00,,,0.00,Wunderground v.1.15,2013-06-21 00:04:00,
2013-06-20 20:10:00,69.9,64.8,29.89,WNW,299,0.0,0.0,84,0.00,,,0.00,Wunderground v.1.15,2013-06-21 00:10:00,
2013-06-20 20:16:00,69.6,64.9,29.88,WNW,299,0.0,0.0,85,0.00,,,0.00,Wunderground v.1.15,2013-06-21 00:16:00,
2013-06-20 20:22:00,69.4,65.0,29.89,WNW,299,0.0,0.0,86,0.00,,,0.00,Wunderground v.1.15,2013-06-21 00:22:00,
2013-06-20 20:28:00,69.1,64.7,29.89,WNW,299,0.0,0.0,86,0.00,,,0.00,Wunderground v.1.15,2013-06-21 00:28:00,
2013-06-20 20:33:00,68.9,64.5,29.89,WNW,299,0.0,0.0,86,0.00,,,0.00,Wunderground v.1.15,2013-06-21 00:33:00,
2013-06-20 20:39:00,68.7,64.3,29.89,WNW,299,0.0,0.0,86,0.00,,,0.00,Wunderground v.1.15,2013-06-21 00:39:00,
2013-06-20 20:45:00,68.5,64.5,29.90,WNW,299,0.0,0.0,87,0.00,,,0.00,Wunderground v.1.15,2013-06-21 00:45:00,
2013-06-20 20:51:00,68.4,64.4,29.89,WNW,299,0.0,0.0,87,0.00,,,0.00,Wunderground v.1.15,2013-06-21 00:51:00,
2013-06-20 20:56:00,68.2,64.2,29.90,WNW,299,0.0,0.0,87,0.00,,,0.00,Wunderground v.1.15,2013-06-21 00:56:00,
2013-06-20 21:02:00,67.9,63.9,29.90,WNW,299,0.0,0.0,87,0.00,,,0.00,Wunderground v.1.15,2013-06-21 01:02:00,
2013-06-20 21:08:00,67.7,63.7,29.90,WNW,299,0.0,0.0,87,0.00,,,0.00,Wunderground v.1.15,2013-06-21 01:08:00,
2013-06-20 21:13:00,67.6,63.6,29.90,WNW,299,0.0,0.0,87,0.00,,,0.00,Wunderground v.1.15,2013-06-21 01:13:00,
2013-06-20 21:18:00,67.4,63.4,29.91,WNW,299,0.0,0.0,87,0.00,,,0.00,Wunderground v.1.15,2013-06-21 01:18:00,
2013-06-20 21:24:00,67.1,63.1,29.91,WNW,299,0.0,0.0,87,0.00,,,0.00,Wunderground v.1.15,2013-06-21 01:24:00,
2013-06-20 21:29:00,67.0,63.3,29.91,WNW,299,0.0,0.0,88,0.00,,,0.00,Wunderground v.1.15,2013-06-21 01:29:00,
2013-06-20 21:35:00,66.8,63.1,29.91,WNW,299,0.0,0.0,88,0.00,,,0.00,Wunderground v.1.15,2013-06-21 01:35:00,
2013-06-20 21:41:00,66.6,62.9,29.91,WNW,299,0.0,0.0,88,0.00,,,0.00,Wunderground v.1.15,2013-06-21 01:41:00,
2013-06-20 21:48:00,66.4,62.7,29.91,WNW,299,0.0,0.0,88,0.00,,,0.00,Wunderground v.1.15,2013-06-21 01:48:00,
2013-06-20 21:54:00,66.3,63.0,29.92,WNW,299,0.0,0.0,89,0.00,,,0.00,Wunderground v.1.15,2013-06-21 01:54:00,
2013-06-20 21:59:00,66.2,62.9,29.92,WNW,299,0.0,0.0,89,0.00,,,0.00,Wunderground v.1.15,2013-06-21 01:59:00,
2013-06-20 22:05:00,66.1,62.8,29.92,WNW,299,0.0,0.0,89,0.00,,,0.00,Wunderground v.1.15,2013-06-21 02:05:00,
2013-06-20 22:11:00,66.1,63.1,29.92,WNW,299,0.0,0.0,90,0.00,,,0.00,Wunderground v.1.15,2013-06-21 02:11:00,
2013-06-20 22:17:00,66.2,63.2,29.93,WNW,299,0.0,0.0,90,0.00,,,0.00,Wunderground v.1.15,2013-06-21 02:17:00,
2013-06-20 22:23:00,66.3,63.3,29.93,WNW,299,0.0,0.0,90,0.00,,,0.00,Wunderground v.1.15,2013-06-21 02:23:00,
2013-06-20 22:29:00,66.5,63.2,29.93,WNW,299,0.0,0.0,89,0.00,,,0.00,Wunderground v.1.15,2013-06-21 02:29:00,
2013-06-20 22:34:00,66.5,63.2,29.93,WNW,299,0.0,1.0,89,0.00,,,0.00,Wunderground v.1.15,2013-06-21 02:34:00,
2013-06-20 22:40:00,66.7,63.4,29.93,WNW,299,0.0,1.0,89,0.00,,,0.00,Wunderground v.1.15,2013-06-21 02:40:00,
2013-06-20 22:48:00,66.7,63.4,29.94,WNW,299,0.0,0.0,89,0.00,,,0.00,Wunderground v.1.15,2013-06-21 02:48:00,
2013-06-20 22:54:00,66.7,63.4,29.94,WNW,299,0.0,0.0,89,0.00,,,0.00,Wunderground v.1.15,2013-06-21 02:54:00,
2013-06-20 22:59:00,66.6,63.3,29.94,WNW,299,0.0,1.0,89,0.00,,,0.00,Wunderground v.1.15,2013-06-21 02:59:00,
2013-06-20 23:05:00,66.5,63.2,29.94,WNW,299,0.0,0.0,89,0.00,,,0.00,Wunderground v.1.15,2013-06-21 03:05:00,
2013-06-20 23:10:00,66.6,63.3,29.94,WNW,299,0.0,0.0,89,0.00,,,0.00,Wunderground v.1.15,2013-06-21 03:10:00,
2013-06-20 23:15:00,66.6,63.3,29.95,WNW,299,0.0,0.0,89,0.00,,,0.00,Wunderground v.1.15,2013-06-21 03:15:00,
2013-06-20 23:21:00,66.6,63.3,29.95,WNW,299,0.0,1.0,89,0.00,,,0.00,Wunderground v.1.15,2013-06-21 03:21:00,
2013-06-20 23:27:00,66.7,63.4,29.95,WNW,299,0.0,1.0,89,0.00,,,0.00,Wunderground v.1.15,2013-06-21 03:27:00,
2013-06-20 23:33:00,66.7,63.4,29.95,WNW,299,0.0,0.0,89,0.00,,,0.00,Wunderground v.1.15,2013-06-21 03:33:00,
2013-06-20 23:38:00,66.8,63.5,29.95,WNW,299,0.0,0.0,89,0.00,,,0.00,Wunderground v.1.15,2013-06-21 03:38:00,
2013-06-20 23:44:00,66.7,63.4,29.95,WNW,299,0.0,0.0,89,0.00,,,0.00,Wunderground v.1.15,2013-06-21 03:44:00,
2013-06-20 23:50:00,66.7,63.4,29.95,WNW,299,0.0,0.0,89,0.00,,,0.00,Wunderground v.1.15,2013-06-21 03:50:00,
2013-06-20 23:55:00,66.7,63.4,29.95,WNW,299,0.0,0.0,89,0.00,,,0.00,Wunderground v.1.15,2013-06-21 03:55:00,